, SD

(GMT )
Rapid City

Weather History for KRAP - January, 2003

Change the Weather History Date:

Wednesday, January 1, 2003

  Actual Average Record
Temperature  
Mean Temperature 31 °F 24 °F  
Max Temperature 44 °F 37 °F 63 °F (1998)
Min Temperature 17 °F 12 °F -20 °F (1974)
Degree Days  
Heating Degree Days 34 41  
Month to date heating degree days 41  
Since 1 July heating degree days 2957  
Cooling Degree Days 0 0  
Month to date cooling degree days 0  
Year to date cooling degree days 0  
Moisture  
Dew Point 23 °F    
Average Humidity 74    
Maximum Humidity 96    
Minimum Humidity 45    
Precipitation  
Precipitation 0.00 in 0.01 in 0.28 in (1970)
Month to date precipitation 0.01  
Year to date precipitation 0.01  
Snow  
Snow 0.00 in 0.10 in 3.40 in (1970)
Month to date snowfall 0.1  
Since 1 July snowfall 13.3  
Snow Depth -    
Sea Level Pressure  
Sea Level Pressure 30.10 in    
Wind  
Wind Speed 16 mph (NNW)    
Max Wind Speed 34 mph    
Max Gust Speed 38 mph    
Visibility 10 miles    
Events Rain    
T = Trace of Precipitation, MM = Missing Value Source: NWS Daily Summary

Daily Weather History Graph

Daily Weather History Graph

Search for Another Location

Airport or City:

Trip Planner

Search our weather history database for the weather conditions in past years. The results will help you decide how hot, cold, wet, or windy it might be!

Date:

Astronomy

Jan. 01, 2003 Rise Set
Actual Time 7:27 AM MST 4:24 PM MST
Civil Twilight 6:54 AM MST 4:57 PM MST
Nautical Twilight 6:17 AM MST 5:33 PM MST
Astronomical Twilight 5:42 AM MST 6:08 PM MST
Moon 6:29 AM MST (1/1) 3:13 PM MST (1/1)
Length of Visible Light 10h 03m
Length of Day
8h 57m
Waning Crescent, 1% of the Moon is Illuminated
Jan 1
Waning Crescent
Jan 2
New
Jan 10
First Quarter
Jan 18
Full
Jan 25
Last Quarter

Hourly Weather History & Observations

Time (MST) Temp. Windchill Dew Point Humidity Pressure Visibility Wind Dir Wind Speed Gust Speed Precip Events Conditions
12:52 AM 24.1 °F 10.1 °F 17.1 °F 75% 29.84 in 10.0 mi North 18.4 mph - N/A   Scattered Clouds
1:52 AM 24.1 °F 11.0 °F 18.0 °F 77% 29.89 in 10.0 mi North 16.1 mph - N/A   Mostly Cloudy
2:52 AM 27.0 °F 16.1 °F 18.0 °F 69% 29.90 in 10.0 mi North 12.7 mph - N/A   Overcast
3:52 AM 28.0 °F 19.3 °F 18.0 °F 66% 29.94 in 10.0 mi NW 9.2 mph - N/A   Overcast
4:52 AM 24.1 °F 13.7 °F 18.0 °F 77% 29.99 in 10.0 mi NNW 10.4 mph - N/A   Scattered Clouds
5:52 AM 30.0 °F 20.5 °F 21.0 °F 69% 29.99 in 10.0 mi NNW 11.5 mph - N/A   Overcast
6:52 AM 28.0 °F 17.0 °F 21.0 °F 75% 30.01 in 10.0 mi NNW 13.8 mph - N/A   Clear
7:52 AM 30.0 °F 19.1 °F 23.0 °F 75% 30.06 in 10.0 mi North 15.0 mph - N/A   Clear
8:39 AM 32.0 °F 23.0 °F 24.8 °F 75% 29.99 in 10.0 mi NNW 11.5 mph - N/A   Overcast
8:52 AM 34.0 °F 26.6 °F 26.1 °F 73% 30.10 in 10.0 mi North 9.2 mph - N/A   Overcast
9:52 AM 39.0 °F 28.0 °F 34.0 °F 82% 30.12 in 10.0 mi NNW 25.3 mph 29.9 mph 0.00 in Rain Light Rain
10:12 AM 39.2 °F 29.6 °F 33.8 °F 81% 30.03 in 10.0 mi NNW 19.6 mph - 0.00 in   Overcast
10:52 AM 41.0 °F 30.9 °F 32.0 °F 70% 30.11 in 10.0 mi NNW 24.2 mph - 0.00 in   Overcast
11:52 AM 42.1 °F 30.6 °F 26.1 °F 53% 30.10 in 10.0 mi NW 34.5 mph 38.0 mph N/A   Partly Cloudy
12:52 PM 44.1 °F 34.6 °F 26.1 °F 49% 30.10 in 10.0 mi NNW 26.5 mph - N/A   Clear
1:52 PM 43.0 °F 32.7 °F 23.0 °F 45% 30.11 in 10.0 mi NNW 28.8 mph 34.5 mph N/A   Clear
2:52 PM 39.0 °F 28.0 °F 25.0 °F 57% 30.14 in 10.0 mi North 25.3 mph 32.2 mph N/A   Clear
3:52 PM 37.0 °F 27.4 °F 25.0 °F 62% 30.17 in 10.0 mi North 17.3 mph - N/A   Clear
4:52 PM 33.1 °F 22.6 °F 24.1 °F 70% 30.20 in 10.0 mi North 16.1 mph - N/A   Clear
5:52 PM 25.0 °F 18.1 °F 19.9 °F 81% 30.23 in 10.0 mi North 5.8 mph - N/A   Clear
6:52 PM 28.0 °F 16.1 °F 23.0 °F 81% 30.25 in 10.0 mi North 16.1 mph - N/A   Clear
7:52 PM 25.0 °F 14.2 °F 21.9 °F 88% 30.25 in 10.0 mi North 11.5 mph - N/A   Clear
8:52 PM 21.9 °F 11.7 °F 19.9 °F 92% 30.26 in 10.0 mi NW 9.2 mph - N/A   Clear
9:52 PM 21.0 °F 14.6 °F 19.0 °F 92% 30.26 in 10.0 mi West 4.6 mph - N/A   Clear
10:52 PM 18.0 °F - 17.1 °F 96% 30.25 in 10.0 mi Calm Calm - N/A   Clear
11:52 PM 17.1 °F - 15.1 °F 92% 30.24 in 10.0 mi Calm Calm - N/A   Clear